Year,Month,Day,Hour,Minute,Value (Times are PST for temperature in C)
2018,09,07,00,00,19.50
2018,09,07,00,01,19.60
2018,09,07,00,02,19.70
2018,09,07,00,03,19.70
2018,09,07,00,04,19.80
2018,09,07,00,05,19.80
2018,09,07,00,06,19.90
2018,09,07,00,07,19.90
2018,09,07,00,08,20.00
2018,09,07,00,09,20.00
2018,09,07,00,10,20.10
2018,09,07,00,11,20.10
2018,09,07,00,12,20.20
2018,09,07,00,13,20.20
2018,09,07,00,14,20.20
2018,09,07,00,15,20.20
2018,09,07,00,16,20.30
2018,09,07,00,17,20.30
2018,09,07,00,18,20.30
2018,09,07,00,19,20.30
2018,09,07,00,20,20.30
2018,09,07,00,21,20.30
2018,09,07,00,22,20.30
2018,09,07,00,23,20.30
2018,09,07,00,24,20.30
2018,09,07,00,25,20.30
2018,09,07,00,26,20.30
2018,09,07,00,27,20.30
2018,09,07,00,28,20.30
2018,09,07,00,29,20.30
2018,09,07,00,30,20.30
2018,09,07,00,31,20.30
2018,09,07,00,32,20.30
2018,09,07,00,33,20.30
2018,09,07,00,34,20.20
2018,09,07,00,35,20.20
2018,09,07,00,36,20.20
2018,09,07,00,37,20.20
2018,09,07,00,38,20.10
2018,09,07,00,39,20.10
2018,09,07,00,40,20.10
2018,09,07,00,41,20.10
2018,09,07,00,42,20.00
2018,09,07,00,43,20.00
2018,09,07,00,44,20.00
2018,09,07,00,45,20.00
2018,09,07,00,46,19.90
2018,09,07,00,47,19.90
2018,09,07,00,48,19.90
2018,09,07,00,49,19.90
2018,09,07,00,50,19.90
2018,09,07,00,51,19.80
2018,09,07,00,52,19.80
2018,09,07,00,53,19.80
2018,09,07,00,54,19.70
2018,09,07,00,55,19.70
2018,09,07,00,56,19.70
2018,09,07,00,57,19.70
2018,09,07,00,58,19.70
2018,09,07,00,59,19.70
2018,09,07,01,00,19.60
2018,09,07,01,01,19.60
2018,09,07,01,02,19.60
2018,09,07,01,03,19.60
2018,09,07,01,04,19.60
2018,09,07,01,05,19.60
2018,09,07,01,06,19.60
2018,09,07,01,07,19.60
2018,09,07,01,08,19.60
2018,09,07,01,09,19.50
2018,09,07,01,10,19.60
2018,09,07,01,11,19.60
2018,09,07,01,12,19.50
2018,09,07,01,13,19.50
2018,09,07,01,14,19.50
2018,09,07,01,15,19.50
2018,09,07,01,16,19.50
2018,09,07,01,17,19.50
2018,09,07,01,18,19.50
2018,09,07,01,19,19.40
2018,09,07,01,20,19.50
2018,09,07,01,21,19.40
2018,09,07,01,22,19.50
2018,09,07,01,23,19.40
2018,09,07,01,24,19.50
2018,09,07,01,25,19.50
2018,09,07,01,26,19.50
2018,09,07,01,27,19.50
2018,09,07,01,28,19.40
2018,09,07,01,29,19.50
2018,09,07,01,30,19.50
2018,09,07,01,31,19.50
2018,09,07,01,32,19.50
2018,09,07,01,33,19.50
2018,09,07,01,34,19.50
2018,09,07,01,35,19.50
2018,09,07,01,36,19.50
2018,09,07,01,37,19.50
2018,09,07,01,38,19.50
2018,09,07,01,39,19.50
2018,09,07,01,40,19.50
2018,09,07,01,41,19.50
2018,09,07,01,42,19.50
2018,09,07,01,43,19.50
2018,09,07,01,44,19.40
2018,09,07,01,45,19.40
2018,09,07,01,46,19.40
2018,09,07,01,47,19.40
2018,09,07,01,48,19.40
2018,09,07,01,49,19.40
2018,09,07,01,50,19.40
2018,09,07,01,51,19.40
2018,09,07,01,52,19.40
2018,09,07,01,53,19.40
2018,09,07,01,54,19.40
2018,09,07,01,55,19.40
2018,09,07,01,56,19.50
2018,09,07,01,57,19.50
2018,09,07,01,58,19.50
2018,09,07,01,59,19.50
2018,09,07,02,00,19.50
2018,09,07,02,01,19.50
2018,09,07,02,02,19.50
2018,09,07,02,03,19.60
2018,09,07,02,04,19.60
2018,09,07,02,05,19.60
2018,09,07,02,06,19.60
2018,09,07,02,07,19.60
2018,09,07,02,08,19.60
2018,09,07,02,09,19.60
2018,09,07,02,10,19.60
2018,09,07,02,11,19.60
2018,09,07,02,12,19.60
2018,09,07,02,13,19.60
2018,09,07,02,14,19.60
2018,09,07,02,15,19.50
2018,09,07,02,16,19.50
2018,09,07,02,17,19.50
2018,09,07,02,18,19.50
2018,09,07,02,19,19.50
2018,09,07,02,20,19.50
2018,09,07,02,21,19.50
2018,09,07,02,22,19.50
2018,09,07,02,23,19.50
2018,09,07,02,24,19.40
2018,09,07,02,25,19.40
2018,09,07,02,26,19.40
2018,09,07,02,27,19.40
2018,09,07,02,28,19.40
2018,09,07,02,29,19.40
2018,09,07,02,30,19.40
2018,09,07,02,31,19.50
2018,09,07,02,32,19.50
2018,09,07,02,33,19.50
2018,09,07,02,34,19.50
2018,09,07,02,35,19.50
2018,09,07,02,36,19.60
2018,09,07,02,37,19.60
2018,09,07,02,38,19.60
2018,09,07,02,39,19.60
2018,09,07,02,40,19.60
2018,09,07,02,41,19.60
2018,09,07,02,42,19.60
2018,09,07,02,43,19.60
2018,09,07,02,44,19.60
2018,09,07,02,45,19.60
2018,09,07,02,46,19.60
2018,09,07,02,47,19.60
2018,09,07,02,48,19.60
2018,09,07,02,49,19.60
2018,09,07,02,50,19.60
2018,09,07,02,51,19.60
2018,09,07,02,52,19.60
2018,09,07,02,53,19.60
2018,09,07,02,54,19.60
2018,09,07,02,55,19.50
2018,09,07,02,56,19.50
2018,09,07,02,57,19.50
2018,09,07,02,58,19.50
2018,09,07,02,59,19.50
2018,09,07,03,00,19.50
2018,09,07,03,01,19.50
2018,09,07,03,02,19.60
2018,09,07,03,03,19.60
2018,09,07,03,04,19.50
2018,09,07,03,05,19.40
2018,09,07,03,06,19.30
2018,09,07,03,07,19.30
2018,09,07,03,08,19.20
2018,09,07,03,09,19.20
2018,09,07,03,10,19.10
2018,09,07,03,11,19.10
2018,09,07,03,12,19.00
2018,09,07,03,13,19.00
2018,09,07,03,14,18.90
2018,09,07,03,15,18.90
2018,09,07,03,16,18.90
2018,09,07,03,17,18.90
2018,09,07,03,18,18.80
2018,09,07,03,19,18.80
2018,09,07,03,20,18.90
2018,09,07,03,21,18.80
2018,09,07,03,22,18.80
2018,09,07,03,23,18.80
2018,09,07,03,24,18.80
2018,09,07,03,25,18.80
2018,09,07,03,26,18.80
2018,09,07,03,27,18.80
2018,09,07,03,28,18.80
2018,09,07,03,29,18.80
2018,09,07,03,30,18.80
2018,09,07,03,31,18.80
2018,09,07,03,32,18.80
2018,09,07,03,33,18.90
2018,09,07,03,34,18.90
2018,09,07,03,35,18.90
2018,09,07,03,36,18.90
2018,09,07,03,37,18.90
2018,09,07,03,38,18.90
2018,09,07,03,39,18.90
2018,09,07,03,40,18.90
2018,09,07,03,41,18.90
2018,09,07,03,42,18.90
2018,09,07,03,43,18.90
2018,09,07,03,44,18.90
2018,09,07,03,45,18.90
2018,09,07,03,46,18.90
2018,09,07,03,47,18.90
2018,09,07,03,48,18.90
2018,09,07,03,49,18.90
2018,09,07,03,50,18.90
2018,09,07,03,51,18.90
2018,09,07,03,52,18.90
2018,09,07,03,53,18.90
2018,09,07,03,54,18.90
2018,09,07,03,55,18.80
2018,09,07,03,56,18.80
2018,09,07,03,57,18.80
2018,09,07,03,58,18.80
2018,09,07,03,59,18.80
2018,09,07,04,00,18.80
2018,09,07,04,01,18.80
2018,09,07,04,02,18.70
2018,09,07,04,03,18.70
2018,09,07,04,04,18.70
2018,09,07,04,05,18.60
2018,09,07,04,06,18.60
2018,09,07,04,07,18.60
2018,09,07,04,08,18.50
2018,09,07,04,09,18.50
2018,09,07,04,10,18.50
2018,09,07,04,11,18.40
2018,09,07,04,12,18.40
2018,09,07,04,13,18.40
2018,09,07,04,14,18.40
2018,09,07,04,15,18.30
2018,09,07,04,16,18.30
2018,09,07,04,17,18.30
2018,09,07,04,18,18.30
2018,09,07,04,19,18.20
2018,09,07,04,20,18.20
2018,09,07,04,21,18.20
2018,09,07,04,22,18.10
2018,09,07,04,23,18.10
2018,09,07,04,24,18.10
2018,09,07,04,25,18.10
2018,09,07,04,26,18.00
2018,09,07,04,27,18.00
2018,09,07,04,28,17.90
2018,09,07,04,29,17.90
2018,09,07,04,30,17.90
2018,09,07,04,31,17.90
2018,09,07,04,32,17.90
2018,09,07,04,33,17.90
2018,09,07,04,34,17.90
2018,09,07,04,35,17.80
2018,09,07,04,36,17.90
2018,09,07,04,37,17.80
2018,09,07,04,38,17.80
2018,09,07,04,39,17.80
2018,09,07,04,40,17.80
2018,09,07,04,41,17.80
2018,09,07,04,42,17.80
2018,09,07,04,43,17.80
2018,09,07,04,44,17.80
2018,09,07,04,45,17.80
2018,09,07,04,46,17.70
2018,09,07,04,47,17.70
2018,09,07,04,48,17.70
2018,09,07,04,49,17.70
2018,09,07,04,50,17.70
2018,09,07,04,51,17.70
2018,09,07,04,52,17.70
2018,09,07,04,53,17.70
2018,09,07,04,54,17.70
2018,09,07,04,55,17.70
2018,09,07,04,56,17.70
2018,09,07,04,57,17.70
2018,09,07,04,58,17.70
2018,09,07,04,59,17.70
2018,09,07,05,00,17.60
2018,09,07,05,01,17.60
2018,09,07,05,02,17.60
2018,09,07,05,03,17.60
2018,09,07,05,04,17.60
2018,09,07,05,05,17.50
2018,09,07,05,06,17.50
2018,09,07,05,07,17.50
2018,09,07,05,08,17.40
2018,09,07,05,09,17.40
2018,09,07,05,10,17.40
2018,09,07,05,11,17.40
2018,09,07,05,12,17.40
2018,09,07,05,13,17.30
2018,09,07,05,14,17.30
2018,09,07,05,15,17.30
2018,09,07,05,16,17.30
2018,09,07,05,17,17.30
2018,09,07,05,18,17.30
2018,09,07,05,19,17.30
2018,09,07,05,20,17.30
2018,09,07,05,21,17.30
2018,09,07,05,22,17.30
2018,09,07,05,23,17.30
2018,09,07,05,24,17.30
2018,09,07,05,25,17.30
2018,09,07,05,26,17.20
2018,09,07,05,27,17.20
2018,09,07,05,28,17.20
2018,09,07,05,29,17.20
2018,09,07,05,30,17.20
2018,09,07,05,31,17.10
2018,09,07,05,32,17.10
2018,09,07,05,33,17.10
2018,09,07,05,34,17.10
2018,09,07,05,35,17.00
2018,09,07,05,36,17.00
2018,09,07,05,37,17.00
2018,09,07,05,38,16.90
2018,09,07,05,39,16.90
2018,09,07,05,40,16.80
2018,09,07,05,41,16.80
2018,09,07,05,42,16.70
2018,09,07,05,43,16.70
2018,09,07,05,44,16.60
2018,09,07,05,45,16.60
2018,09,07,05,46,16.50
2018,09,07,05,47,16.40
2018,09,07,05,48,16.40
2018,09,07,05,49,16.40
2018,09,07,05,50,16.40
2018,09,07,05,51,16.30
2018,09,07,05,52,16.30
2018,09,07,05,53,16.30
2018,09,07,05,54,16.30
2018,09,07,05,55,16.20
2018,09,07,05,56,16.20
2018,09,07,05,57,16.20
2018,09,07,05,58,16.20
2018,09,07,05,59,16.20
2018,09,07,06,00,16.20
2018,09,07,06,01,16.20
2018,09,07,06,02,16.20
2018,09,07,06,03,16.20
2018,09,07,06,04,16.20
2018,09,07,06,05,16.20
2018,09,07,06,06,16.20
2018,09,07,06,07,16.20
2018,09,07,06,08,16.20
2018,09,07,06,09,16.20
2018,09,07,06,10,16.20
2018,09,07,06,11,16.20
2018,09,07,06,12,16.20
2018,09,07,06,13,16.20
2018,09,07,06,14,16.30
2018,09,07,06,15,16.30
2018,09,07,06,16,16.30
2018,09,07,06,17,16.30
2018,09,07,06,18,16.30
2018,09,07,06,19,16.30
2018,09,07,06,20,16.30
2018,09,07,06,21,16.30
2018,09,07,06,22,16.30
2018,09,07,06,23,16.30
2018,09,07,06,24,16.30
2018,09,07,06,25,16.30
2018,09,07,06,26,16.30
2018,09,07,06,27,16.30
2018,09,07,06,28,16.30
2018,09,07,06,29,16.30
2018,09,07,06,30,16.30
2018,09,07,06,31,16.30
2018,09,07,06,32,16.30
2018,09,07,06,33,16.30
2018,09,07,06,34,16.30
2018,09,07,06,35,16.30
2018,09,07,06,36,16.30
2018,09,07,06,37,16.30
2018,09,07,06,38,16.30
2018,09,07,06,39,16.30
2018,09,07,06,40,16.30
2018,09,07,06,41,16.30
2018,09,07,06,42,16.30
2018,09,07,06,43,16.30
2018,09,07,06,44,16.20
2018,09,07,06,45,16.20
2018,09,07,06,46,16.20
2018,09,07,06,47,16.20
2018,09,07,06,48,16.20
2018,09,07,06,49,16.20
2018,09,07,06,50,16.20
2018,09,07,06,51,16.20
2018,09,07,06,52,16.20
2018,09,07,06,53,16.20
2018,09,07,06,54,16.20
2018,09,07,06,55,16.10
2018,09,07,06,56,16.10
2018,09,07,06,57,16.10
2018,09,07,06,58,16.10
2018,09,07,06,59,16.10
2018,09,07,07,00,16.10
2018,09,07,07,01,16.10
2018,09,07,07,02,16.10
2018,09,07,07,03,16.10
2018,09,07,07,04,16.10
2018,09,07,07,05,16.10
2018,09,07,07,06,16.00
2018,09,07,07,07,16.00
2018,09,07,07,08,16.00
2018,09,07,07,09,16.00
2018,09,07,07,10,16.00
2018,09,07,07,11,16.00
2018,09,07,07,12,16.00
2018,09,07,07,13,16.00
2018,09,07,07,14,16.00
2018,09,07,07,15,16.00
2018,09,07,07,16,16.00
2018,09,07,07,17,16.00
2018,09,07,07,18,16.10
2018,09,07,07,19,16.10
2018,09,07,07,20,16.00
2018,09,07,07,21,16.10
2018,09,07,07,22,16.10
2018,09,07,07,23,16.00
2018,09,07,07,24,16.10
2018,09,07,07,25,16.10
2018,09,07,07,26,16.10
2018,09,07,07,27,16.10
2018,09,07,07,28,16.10
2018,09,07,07,29,16.10
2018,09,07,07,30,16.10
2018,09,07,07,31,16.10
2018,09,07,07,32,16.10
2018,09,07,07,33,16.10
2018,09,07,07,34,16.10
2018,09,07,07,35,16.10
2018,09,07,07,36,16.10
2018,09,07,07,37,16.10
2018,09,07,07,38,16.10
2018,09,07,07,39,16.10
2018,09,07,07,40,16.10
2018,09,07,07,41,16.10
2018,09,07,07,42,16.10
2018,09,07,07,43,16.10
2018,09,07,07,44,16.10
2018,09,07,07,45,16.10
2018,09,07,07,46,16.10
2018,09,07,07,47,16.10
2018,09,07,07,48,16.10
2018,09,07,07,49,16.10
2018,09,07,07,50,16.10
2018,09,07,07,51,16.10
2018,09,07,07,52,16.10
2018,09,07,07,53,16.10
2018,09,07,07,54,16.10
2018,09,07,07,55,16.20
2018,09,07,07,56,16.20
2018,09,07,07,57,16.20
2018,09,07,07,58,16.20
2018,09,07,07,59,16.20
2018,09,07,08,00,16.20
2018,09,07,08,01,16.20
2018,09,07,08,02,16.20
2018,09,07,08,03,16.20
2018,09,07,08,04,16.20
2018,09,07,08,05,16.20
2018,09,07,08,06,16.20
2018,09,07,08,07,16.20
2018,09,07,08,08,16.20
2018,09,07,08,09,16.20
2018,09,07,08,10,16.20
2018,09,07,08,11,16.20
2018,09,07,08,12,16.20
2018,09,07,08,13,16.20
2018,09,07,08,14,16.10
2018,09,07,08,15,16.10
2018,09,07,08,16,16.10
2018,09,07,08,17,16.10
2018,09,07,08,18,16.10
2018,09,07,08,19,16.10
2018,09,07,08,20,16.00
2018,09,07,08,21,16.00
2018,09,07,08,22,16.00
2018,09,07,08,23,15.90
2018,09,07,08,24,15.90
2018,09,07,08,25,15.90
2018,09,07,08,26,15.90
2018,09,07,08,27,15.90
2018,09,07,08,28,15.90
2018,09,07,08,29,15.90
2018,09,07,08,30,15.90
2018,09,07,08,31,15.80
2018,09,07,08,32,15.80
2018,09,07,08,33,15.80
2018,09,07,08,34,15.80
2018,09,07,08,35,15.80
2018,09,07,08,36,15.80
2018,09,07,08,37,15.80
2018,09,07,08,38,15.80
2018,09,07,08,39,15.80
2018,09,07,08,40,15.70
2018,09,07,08,41,15.70
2018,09,07,08,42,15.70
2018,09,07,08,43,15.70
2018,09,07,08,44,15.70
2018,09,07,08,45,15.70
2018,09,07,08,46,15.70
2018,09,07,08,47,15.70
2018,09,07,08,48,15.70
2018,09,07,08,49,15.60
2018,09,07,08,50,15.60
2018,09,07,08,51,15.60
2018,09,07,08,52,15.60
2018,09,07,08,53,15.60
2018,09,07,08,54,15.60
2018,09,07,08,55,15.60
2018,09,07,08,56,15.60
2018,09,07,08,57,15.60
2018,09,07,08,58,15.60
2018,09,07,08,59,15.60
2018,09,07,09,00,15.60
2018,09,07,09,01,15.60
2018,09,07,09,02,15.60
2018,09,07,09,03,15.60
2018,09,07,09,04,15.60
2018,09,07,09,05,15.50
2018,09,07,09,06,15.50
2018,09,07,09,07,15.50
2018,09,07,09,08,15.50
2018,09,07,09,09,15.50
2018,09,07,09,10,15.40
2018,09,07,09,11,15.40
2018,09,07,09,12,15.40
2018,09,07,09,13,15.40
2018,09,07,09,14,15.40
2018,09,07,09,15,15.40
2018,09,07,09,16,15.40
2018,09,07,09,17,15.40
2018,09,07,09,18,15.40
2018,09,07,09,19,15.40
2018,09,07,09,20,15.40
2018,09,07,09,21,15.40
2018,09,07,09,22,15.40
2018,09,07,09,23,15.40
2018,09,07,09,24,15.40
2018,09,07,09,25,15.40
2018,09,07,09,26,15.40
2018,09,07,09,27,15.40
2018,09,07,09,28,15.40
2018,09,07,09,29,15.40
2018,09,07,09,30,15.40
2018,09,07,09,31,15.40
2018,09,07,09,32,15.40
2018,09,07,09,33,15.30
2018,09,07,09,34,15.30
2018,09,07,09,35,15.30
2018,09,07,09,36,15.30
2018,09,07,09,37,15.30
2018,09,07,09,38,15.30
2018,09,07,09,39,15.30
2018,09,07,09,40,15.30
2018,09,07,09,41,15.30
2018,09,07,09,42,15.30
2018,09,07,09,43,15.30
2018,09,07,09,44,15.30
2018,09,07,09,45,15.30
2018,09,07,09,46,15.30
2018,09,07,09,47,15.30
2018,09,07,09,48,15.30
2018,09,07,09,49,15.20
2018,09,07,09,50,15.30
2018,09,07,09,51,15.20
2018,09,07,09,52,15.20
2018,09,07,09,53,15.20
2018,09,07,09,54,15.20
2018,09,07,09,55,15.20
2018,09,07,09,56,15.20
2018,09,07,09,57,15.20
2018,09,07,09,58,15.20
2018,09,07,09,59,15.20
2018,09,07,10,00,15.20
2018,09,07,10,01,15.20
2018,09,07,10,02,15.20
2018,09,07,10,03,15.20
2018,09,07,10,04,15.20
2018,09,07,10,05,15.20
2018,09,07,10,06,15.20
2018,09,07,10,07,15.20
2018,09,07,10,08,15.20
2018,09,07,10,09,15.20
2018,09,07,10,10,15.20
2018,09,07,10,11,15.20
2018,09,07,10,12,15.30
2018,09,07,10,13,15.30
2018,09,07,10,14,15.30
2018,09,07,10,15,15.30
2018,09,07,10,16,15.30
2018,09,07,10,17,15.30
2018,09,07,10,18,15.30
2018,09,07,10,19,15.30
2018,09,07,10,20,15.30
2018,09,07,10,21,15.40
2018,09,07,10,22,15.40
2018,09,07,10,23,15.40
2018,09,07,10,24,15.40
2018,09,07,10,25,15.40
2018,09,07,10,26,15.40
2018,09,07,10,27,15.40
2018,09,07,10,28,15.50
2018,09,07,10,29,15.50
2018,09,07,10,30,15.50
2018,09,07,10,31,15.50
2018,09,07,10,32,15.60
2018,09,07,10,33,15.60
2018,09,07,10,34,15.60
2018,09,07,10,35,15.60
2018,09,07,10,36,15.60
2018,09,07,10,37,15.70
2018,09,07,10,38,15.70
2018,09,07,10,39,15.70
2018,09,07,10,40,15.70
2018,09,07,10,41,15.80
2018,09,07,10,42,15.80
2018,09,07,10,43,15.80
2018,09,07,10,44,15.90
2018,09,07,10,45,15.90
2018,09,07,10,46,15.90
2018,09,07,10,47,16.00
2018,09,07,10,48,16.00
2018,09,07,10,49,16.00
2018,09,07,10,50,16.00
2018,09,07,10,51,16.10
2018,09,07,10,52,16.10
2018,09,07,10,53,16.10
2018,09,07,10,54,16.10
2018,09,07,10,55,16.10
2018,09,07,10,56,16.10
2018,09,07,10,57,16.10
2018,09,07,10,58,16.10
2018,09,07,10,59,16.10
2018,09,07,11,00,16.10
2018,09,07,11,01,16.10
2018,09,07,11,02,16.10
2018,09,07,11,03,16.10
2018,09,07,11,04,16.20
2018,09,07,11,05,16.20
2018,09,07,11,06,16.20
2018,09,07,11,07,16.20
2018,09,07,11,08,16.20
2018,09,07,11,09,16.30
2018,09,07,11,10,16.30
2018,09,07,11,11,16.30
2018,09,07,11,12,16.30
2018,09,07,11,13,16.30
2018,09,07,11,14,16.40
2018,09,07,11,15,16.40
2018,09,07,11,16,16.40
2018,09,07,11,17,16.50
2018,09,07,11,18,16.50
2018,09,07,11,19,16.50
2018,09,07,11,20,16.60
2018,09,07,11,21,16.60
2018,09,07,11,22,16.60
2018,09,07,11,23,16.60
2018,09,07,11,24,16.60
2018,09,07,11,25,16.70
2018,09,07,11,26,16.80
2018,09,07,11,27,16.80
2018,09,07,11,28,16.80
2018,09,07,11,29,16.80
2018,09,07,11,30,16.80
2018,09,07,11,31,16.90
2018,09,07,11,32,16.90
2018,09,07,11,33,16.90
2018,09,07,11,34,16.90
2018,09,07,11,35,16.90
2018,09,07,11,36,16.90
2018,09,07,11,37,16.90
2018,09,07,11,38,16.90
2018,09,07,11,39,16.90
2018,09,07,11,40,17.00
2018,09,07,11,41,17.00
2018,09,07,11,42,17.00
2018,09,07,11,43,17.00
2018,09,07,11,44,17.00
2018,09,07,11,45,17.00
2018,09,07,11,46,17.00
2018,09,07,11,47,17.00
2018,09,07,11,48,16.90
2018,09,07,11,49,16.90
2018,09,07,11,50,16.90
2018,09,07,11,51,16.90
2018,09,07,11,52,16.90
2018,09,07,11,53,17.00
2018,09,07,11,54,17.00
2018,09,07,11,55,17.10
2018,09,07,11,56,17.10
2018,09,07,11,57,17.10
2018,09,07,11,58,17.10
2018,09,07,11,59,17.10
2018,09,07,12,00,17.10
2018,09,07,12,01,17.10
2018,09,07,12,02,17.10
2018,09,07,12,03,17.10
2018,09,07,12,04,17.10
2018,09,07,12,05,17.00
2018,09,07,12,06,17.00
2018,09,07,12,07,17.00
2018,09,07,12,08,16.90
2018,09,07,12,09,16.90
2018,09,07,12,10,16.90
2018,09,07,12,11,16.90
2018,09,07,12,12,16.90
2018,09,07,12,13,16.80
2018,09,07,12,14,16.80
2018,09,07,12,15,16.80
2018,09,07,12,16,16.80
2018,09,07,12,17,16.80
2018,09,07,12,18,16.80
2018,09,07,12,19,16.80
2018,09,07,12,20,16.80
2018,09,07,12,21,16.80
2018,09,07,12,22,16.80
2018,09,07,12,23,16.80
2018,09,07,12,24,16.80
2018,09,07,12,25,16.80
2018,09,07,12,26,16.80
2018,09,07,12,27,16.80
2018,09,07,12,28,16.80
2018,09,07,12,29,16.80
2018,09,07,12,30,16.80
2018,09,07,12,31,16.80
2018,09,07,12,32,16.80
2018,09,07,12,33,16.90
2018,09,07,12,34,16.80
2018,09,07,12,35,16.80
2018,09,07,12,36,16.90
2018,09,07,12,37,16.90
2018,09,07,12,38,16.90
2018,09,07,12,39,16.90
2018,09,07,12,40,16.90
2018,09,07,12,41,16.90
2018,09,07,12,42,16.90
2018,09,07,12,43,16.90
2018,09,07,12,44,16.90
2018,09,07,12,45,16.90
2018,09,07,12,46,16.90
2018,09,07,12,47,16.90
2018,09,07,12,48,16.90
2018,09,07,12,49,16.90
2018,09,07,12,50,16.90
2018,09,07,12,51,16.90
2018,09,07,12,52,16.90
2018,09,07,12,53,16.90
2018,09,07,12,54,16.90
2018,09,07,12,55,16.90
2018,09,07,12,56,16.90
2018,09,07,12,57,16.90
2018,09,07,12,58,16.90
2018,09,07,12,59,16.90
2018,09,07,13,00,16.90
2018,09,07,13,01,16.90
2018,09,07,13,02,16.90
2018,09,07,13,03,16.90
2018,09,07,13,04,16.90
2018,09,07,13,05,16.90
2018,09,07,13,06,16.90
2018,09,07,13,07,16.90
2018,09,07,13,08,16.90
2018,09,07,13,09,16.90
2018,09,07,13,10,16.90
2018,09,07,13,11,16.90
2018,09,07,13,12,17.00
2018,09,07,13,13,17.00
2018,09,07,13,14,17.00
2018,09,07,13,15,17.10
2018,09,07,13,16,17.10
2018,09,07,13,17,17.20
2018,09,07,13,18,17.20
2018,09,07,13,19,17.30
2018,09,07,13,20,17.30
2018,09,07,13,21,17.40
2018,09,07,13,22,17.50
2018,09,07,13,23,17.50
2018,09,07,13,24,17.60
2018,09,07,13,25,17.60
2018,09,07,13,26,17.60
2018,09,07,13,27,17.60
2018,09,07,13,28,17.60
2018,09,07,13,29,17.60
2018,09,07,13,30,17.60
2018,09,07,13,31,17.60
2018,09,07,13,32,17.60
2018,09,07,13,33,17.60
2018,09,07,13,34,17.60
2018,09,07,13,35,17.70
2018,09,07,13,36,17.70
2018,09,07,13,37,17.70
2018,09,07,13,38,17.70
2018,09,07,13,39,17.70
2018,09,07,13,40,17.70
2018,09,07,13,41,17.70
2018,09,07,13,42,17.70
2018,09,07,13,43,17.70
2018,09,07,13,44,17.70
2018,09,07,13,45,17.80
2018,09,07,13,46,17.80
2018,09,07,13,47,17.80
2018,09,07,13,48,17.80
2018,09,07,13,49,17.80
2018,09,07,13,50,17.80
2018,09,07,13,51,17.80
2018,09,07,13,52,17.80
2018,09,07,13,53,17.80
2018,09,07,13,54,17.80
2018,09,07,13,55,17.80
2018,09,07,13,56,17.80
2018,09,07,13,57,17.80
2018,09,07,13,58,17.80
2018,09,07,13,59,17.90
2018,09,07,14,00,17.90
2018,09,07,14,01,18.00
2018,09,07,14,02,18.00
2018,09,07,14,03,18.00
2018,09,07,14,04,18.00
2018,09,07,14,05,18.00
2018,09,07,14,06,17.90
2018,09,07,14,07,17.90
2018,09,07,14,08,17.90
2018,09,07,14,09,17.80
2018,09,07,14,10,17.80
2018,09,07,14,11,17.80
2018,09,07,14,12,17.80
2018,09,07,14,13,17.70
2018,09,07,14,14,17.70
2018,09,07,14,15,17.70
2018,09,07,14,16,17.60
2018,09,07,14,17,17.60
2018,09,07,14,18,17.50
2018,09,07,14,19,17.40
2018,09,07,14,20,17.40
2018,09,07,14,21,17.30
2018,09,07,14,22,17.20
2018,09,07,14,23,17.10
2018,09,07,14,24,17.10
2018,09,07,14,25,17.00
2018,09,07,14,26,16.90
2018,09,07,14,27,16.80
2018,09,07,14,28,16.80
2018,09,07,14,29,16.80
2018,09,07,14,30,16.70
2018,09,07,14,31,16.70
2018,09,07,14,32,16.60
2018,09,07,14,33,16.60
2018,09,07,14,34,16.60
2018,09,07,14,35,16.60
2018,09,07,14,36,16.60
2018,09,07,14,37,16.50
2018,09,07,14,38,16.50
2018,09,07,14,39,16.50
2018,09,07,14,40,16.50
2018,09,07,14,41,16.50
2018,09,07,14,42,16.50
2018,09,07,14,43,16.50
2018,09,07,14,44,16.50
2018,09,07,14,45,16.50
2018,09,07,14,46,16.50
2018,09,07,14,47,16.50
2018,09,07,14,48,16.60
2018,09,07,14,49,16.60
2018,09,07,14,50,16.60
2018,09,07,14,51,16.60
2018,09,07,14,52,16.60
2018,09,07,14,53,16.60
2018,09,07,14,54,16.70
2018,09,07,14,55,16.70
2018,09,07,14,56,16.70
2018,09,07,14,57,16.70
2018,09,07,14,58,16.70
2018,09,07,14,59,16.70
2018,09,07,15,00,16.70
2018,09,07,15,01,16.70
2018,09,07,15,02,16.70
2018,09,07,15,03,16.70
2018,09,07,15,04,16.70
2018,09,07,15,05,16.70
2018,09,07,15,06,16.70
2018,09,07,15,07,16.70
2018,09,07,15,08,16.70
2018,09,07,15,09,16.70
2018,09,07,15,10,16.70
2018,09,07,15,11,16.70
2018,09,07,15,12,16.70
2018,09,07,15,13,16.70
2018,09,07,15,14,16.70
2018,09,07,15,15,16.70
2018,09,07,15,16,16.60
2018,09,07,15,17,16.60
2018,09,07,15,18,16.60
2018,09,07,15,19,16.60
2018,09,07,15,20,16.60
2018,09,07,15,21,16.50
2018,09,07,15,22,16.50
2018,09,07,15,23,16.50
2018,09,07,15,24,16.40
2018,09,07,15,25,16.40
2018,09,07,15,26,16.30
2018,09,07,15,27,16.30
2018,09,07,15,28,16.20
2018,09,07,15,29,16.20
2018,09,07,15,30,16.20
2018,09,07,15,31,16.20
2018,09,07,15,32,16.20
2018,09,07,15,33,16.10
2018,09,07,15,34,16.20
2018,09,07,15,35,16.20
2018,09,07,15,36,16.20
2018,09,07,15,37,16.20
2018,09,07,15,38,16.20
2018,09,07,15,39,16.20
2018,09,07,15,40,16.20
2018,09,07,15,41,16.30
2018,09,07,15,42,16.30
2018,09,07,15,43,16.30
2018,09,07,15,44,16.30
2018,09,07,15,45,16.30
2018,09,07,15,46,16.40
2018,09,07,15,47,16.40
2018,09,07,15,48,16.40
2018,09,07,15,49,16.40
2018,09,07,15,50,16.40
2018,09,07,15,51,16.50
2018,09,07,15,52,16.50
2018,09,07,15,53,16.50
2018,09,07,15,54,16.50
2018,09,07,15,55,16.50
2018,09,07,15,56,16.50
2018,09,07,15,57,16.50
2018,09,07,15,58,16.50
2018,09,07,15,59,16.50
2018,09,07,16,00,16.50
2018,09,07,16,01,16.40
2018,09,07,16,02,16.40
2018,09,07,16,03,16.40
2018,09,07,16,04,16.40
2018,09,07,16,05,16.30
2018,09,07,16,06,16.30
2018,09,07,16,07,16.30
2018,09,07,16,08,16.20
2018,09,07,16,09,16.20
2018,09,07,16,10,16.20
2018,09,07,16,11,16.20
2018,09,07,16,12,16.10
2018,09,07,16,13,16.10
2018,09,07,16,14,16.10
2018,09,07,16,15,16.10
2018,09,07,16,16,16.10
2018,09,07,16,17,16.10
2018,09,07,16,18,16.10
2018,09,07,16,19,16.00
2018,09,07,16,20,16.00
2018,09,07,16,21,16.00
2018,09,07,16,22,16.00
2018,09,07,16,23,16.00
2018,09,07,16,24,15.90
2018,09,07,16,25,15.90
2018,09,07,16,26,15.90
2018,09,07,16,27,15.90
2018,09,07,16,28,15.80
2018,09,07,16,29,15.80
2018,09,07,16,30,15.80
2018,09,07,16,31,15.70
2018,09,07,16,32,15.70
2018,09,07,16,33,15.70
2018,09,07,16,34,15.60
2018,09,07,16,35,15.60
2018,09,07,16,36,15.50
2018,09,07,16,37,15.50
2018,09,07,16,38,15.40
2018,09,07,16,39,15.40
2018,09,07,16,40,15.40
2018,09,07,16,41,15.40
2018,09,07,16,42,15.30
2018,09,07,16,43,15.30
2018,09,07,16,44,15.30
2018,09,07,16,45,15.30
2018,09,07,16,46,15.30
2018,09,07,16,47,15.30
2018,09,07,16,48,15.20
2018,09,07,16,49,15.30
2018,09,07,16,50,15.20
2018,09,07,16,51,15.20
2018,09,07,16,52,15.30
2018,09,07,16,53,15.30
2018,09,07,16,54,15.30
2018,09,07,16,55,15.30
2018,09,07,16,56,15.20
2018,09,07,16,57,15.20
2018,09,07,16,58,15.20
2018,09,07,16,59,15.20
2018,09,07,17,00,15.20
2018,09,07,17,01,15.20
2018,09,07,17,02,15.10
2018,09,07,17,03,15.10
2018,09,07,17,04,15.10
2018,09,07,17,05,15.10
2018,09,07,17,06,15.00
2018,09,07,17,07,15.00
2018,09,07,17,08,14.90
2018,09,07,17,09,14.90
2018,09,07,17,10,14.90
2018,09,07,17,11,14.90
2018,09,07,17,12,14.90
2018,09,07,17,13,14.90
2018,09,07,17,14,14.80
2018,09,07,17,15,14.80
2018,09,07,17,16,14.80
2018,09,07,17,17,14.80
2018,09,07,17,18,14.90
2018,09,07,17,19,14.90